Time,TemperatureF,DewpointF,PressureIn,WindDirection,WindDirectionDegrees,WindSpeedMPH,WindSpeedGustMPH,Humidity,HourlyPrecipIn,Conditions,Clouds,dailyrainin,SolarRadiationWatts/m^2,SoftwareType,DateUTC
2013-01-08 00:02:00,18.3,15.3,29.87,NE,55,1.0,2.0,88,0.00,,,0.00,0,Wunderground v.1.15,2013-01-08 06:02:00,
2013-01-08 00:07:00,18.2,15.2,29.87,NE,55,0.0,2.0,88,0.00,,,0.00,0,Wunderground v.1.15,2013-01-08 06:07:00,
2013-01-08 00:12:00,18.2,15.2,29.86,NE,55,0.0,1.0,88,0.00,,,0.00,0,Wunderground v.1.15,2013-01-08 06:12:00,
2013-01-08 00:17:00,17.7,14.8,29.86,NE,55,0.0,1.0,88,0.00,,,0.00,0,Wunderground v.1.15,2013-01-08 06:17:00,
2013-01-08 00:22:00,16.6,13.4,29.87,NE,55,0.0,0.0,87,0.00,,,0.00,0,Wunderground v.1.15,2013-01-08 06:22:00,
2013-01-08 00:27:00,16.8,13.9,29.87,NE,55,0.0,2.0,88,0.00,,,0.00,0,Wunderground v.1.15,2013-01-08 06:27:00,
2013-01-08 00:32:00,17.1,14.2,29.87,NE,55,0.0,0.0,88,0.00,,,0.00,0,Wunderground v.1.15,2013-01-08 06:32:00,
2013-01-08 00:37:00,17.1,14.2,29.86,NE,55,0.0,0.0,88,0.00,,,0.00,0,Wunderground v.1.15,2013-01-08 06:37:00,
2013-01-08 00:42:00,17.1,14.2,29.86,NE,55,0.0,1.0,88,0.00,,,0.00,0,Wunderground v.1.15,2013-01-08 06:42:00,
2013-01-08 00:47:00,17.0,14.1,29.86,NE,55,0.0,1.0,88,0.00,,,0.00,0,Wunderground v.1.15,2013-01-08 06:47:00,
2013-01-08 00:52:00,16.5,13.6,29.85,NE,55,1.0,2.0,88,0.00,,,0.00,0,Wunderground v.1.15,2013-01-08 06:52:00,
2013-01-08 00:57:00,15.8,12.9,29.85,NE,55,0.0,2.0,88,0.00,,,0.00,0,Wunderground v.1.15,2013-01-08 06:57:00,
2013-01-08 01:02:00,15.7,12.8,29.85,NE,55,1.0,1.0,88,0.00,,,0.00,0,Wunderground v.1.15,2013-01-08 07:02:00,
2013-01-08 01:07:00,16.2,13.5,29.85,NE,55,2.0,2.0,89,0.00,,,0.00,0,Wunderground v.1.15,2013-01-08 07:07:00,
2013-01-08 01:12:00,16.9,14.2,29.85,NE,55,2.0,3.0,89,0.00,,,0.00,0,Wunderground v.1.15,2013-01-08 07:12:00,
2013-01-08 01:17:00,17.0,14.3,29.85,NE,55,2.0,3.0,89,0.00,,,0.00,0,Wunderground v.1.15,2013-01-08 07:17:00,
2013-01-08 01:22:00,17.0,14.3,29.85,NE,55,1.0,2.0,89,0.00,,,0.00,0,Wunderground v.1.15,2013-01-08 07:22:00,
2013-01-08 01:27:00,17.0,14.3,29.85,NE,55,1.0,2.0,89,0.00,,,0.00,0,Wunderground v.1.15,2013-01-08 07:27:00,
2013-01-08 01:32:00,16.9,14.2,29.85,NE,55,0.0,1.0,89,0.00,,,0.00,0,Wunderground v.1.15,2013-01-08 07:32:00,
2013-01-08 01:37:00,16.4,13.7,29.84,NE,55,1.0,2.0,89,0.00,,,0.00,0,Wunderground v.1.15,2013-01-08 07:37:00,
2013-01-08 01:42:00,16.0,13.3,29.84,NE,55,0.0,1.0,89,0.00,,,0.00,0,Wunderground v.1.15,2013-01-08 07:42:00,
2013-01-08 01:47:00,15.8,13.1,29.84,NE,55,0.0,1.0,89,0.00,,,0.00,0,Wunderground v.1.15,2013-01-08 07:47:00,
2013-01-08 01:52:00,15.5,12.8,29.84,NE,55,2.0,3.0,89,0.00,,,0.00,0,Wunderground v.1.15,2013-01-08 07:52:00,
2013-01-08 01:57:00,15.1,12.4,29.84,NE,55,2.0,3.0,89,0.00,,,0.00,0,Wunderground v.1.15,2013-01-08 07:57:00,
2013-01-08 02:02:00,14.8,12.1,29.83,NE,55,1.0,2.0,89,0.00,,,0.00,0,Wunderground v.1.15,2013-01-08 08:02:00,
2013-01-08 02:07:00,14.9,12.2,29.83,NE,55,0.0,2.0,89,0.00,,,0.00,0,Wunderground v.1.15,2013-01-08 08:07:00,
2013-01-08 02:12:00,14.7,12.0,29.83,NE,55,0.0,0.0,89,0.00,,,0.00,0,Wunderground v.1.15,2013-01-08 08:12:00,
2013-01-08 02:17:00,14.7,12.0,29.83,NE,55,0.0,0.0,89,0.00,,,0.00,0,Wunderground v.1.15,2013-01-08 08:17:00,
2013-01-08 02:22:00,15.2,12.5,29.83,NE,55,0.0,0.0,89,0.00,,,0.00,0,Wunderground v.1.15,2013-01-08 08:22:00,
2013-01-08 02:27:00,15.3,12.6,29.83,NE,55,0.0,0.0,89,0.00,,,0.00,0,Wunderground v.1.15,2013-01-08 08:27:00,
2013-01-08 02:32:00,15.2,12.5,29.83,NE,55,1.0,2.0,89,0.00,,,0.00,0,Wunderground v.1.15,2013-01-08 08:32:00,
2013-01-08 02:37:00,15.3,12.6,29.83,NE,55,1.0,2.0,89,0.00,,,0.00,0,Wunderground v.1.15,2013-01-08 08:37:00,
2013-01-08 02:42:00,15.2,12.5,29.83,NE,55,0.0,2.0,89,0.00,,,0.00,0,Wunderground v.1.15,2013-01-08 08:42:00,
2013-01-08 02:47:00,15.2,12.5,29.83,NE,55,0.0,2.0,89,0.00,,,0.00,0,Wunderground v.1.15,2013-01-08 08:47:00,
2013-01-08 02:52:00,14.7,12.0,29.83,NE,55,0.0,1.0,89,0.00,,,0.00,0,Wunderground v.1.15,2013-01-08 08:52:00,
2013-01-08 02:57:00,14.4,11.8,29.82,NE,55,3.0,3.0,89,0.00,,,0.00,0,Wunderground v.1.15,2013-01-08 08:57:00,
2013-01-08 03:02:00,13.7,11.1,29.82,NE,55,3.0,4.0,89,0.00,,,0.00,0,Wunderground v.1.15,2013-01-08 09:02:00,
2013-01-08 03:07:00,13.1,10.5,29.82,NE,55,2.0,4.0,89,0.00,,,0.00,0,Wunderground v.1.15,2013-01-08 09:07:00,
2013-01-08 03:12:00,13.0,10.4,29.82,NE,55,0.0,3.0,89,0.00,,,0.00,0,Wunderground v.1.15,2013-01-08 09:12:00,
2013-01-08 03:17:00,13.3,10.7,29.82,NE,55,1.0,3.0,89,0.00,,,0.00,0,Wunderground v.1.15,2013-01-08 09:17:00,
2013-01-08 03:22:00,13.3,10.7,29.82,NE,55,0.0,2.0,89,0.00,,,0.00,0,Wunderground v.1.15,2013-01-08 09:22:00,
2013-01-08 03:27:00,13.4,10.8,29.82,NE,55,0.0,2.0,89,0.00,,,0.00,0,Wunderground v.1.15,2013-01-08 09:27:00,
2013-01-08 03:32:00,13.8,11.2,29.81,NE,55,1.0,1.0,89,0.00,,,0.00,0,Wunderground v.1.15,2013-01-08 09:32:00,
2013-01-08 03:36:00,14.0,11.4,29.82,NE,55,1.0,2.0,89,0.00,,,0.00,0,Wunderground v.1.15,2013-01-08 09:36:00,
2013-01-08 03:41:00,14.5,11.9,29.81,NE,55,0.0,2.0,89,0.00,,,0.00,0,Wunderground v.1.15,2013-01-08 09:41:00,
2013-01-08 03:46:00,14.5,11.9,29.81,NE,55,0.0,2.0,89,0.00,,,0.00,0,Wunderground v.1.15,2013-01-08 09:46:00,
2013-01-08 03:51:00,14.5,11.9,29.81,NE,55,1.0,2.0,89,0.00,,,0.00,0,Wunderground v.1.15,2013-01-08 09:51:00,
2013-01-08 03:56:00,14.3,11.7,29.81,NE,55,1.0,2.0,89,0.00,,,0.00,0,Wunderground v.1.15,2013-01-08 09:56:00,
2013-01-08 04:01:00,14.1,11.5,29.81,NE,55,0.0,2.0,89,0.00,,,0.00,0,Wunderground v.1.15,2013-01-08 10:01:00,
2013-01-08 04:06:00,13.8,11.2,29.80,NE,55,2.0,2.0,89,0.00,,,0.00,0,Wunderground v.1.15,2013-01-08 10:06:00,
2013-01-08 04:11:00,13.5,10.9,29.80,NE,55,0.0,1.0,89,0.00,,,0.00,0,Wunderground v.1.15,2013-01-08 10:11:00,
2013-01-08 04:16:00,13.7,11.1,29.80,NE,55,0.0,2.0,89,0.00,,,0.00,0,Wunderground v.1.15,2013-01-08 10:16:00,
2013-01-08 04:21:00,13.6,11.0,29.80,NE,55,1.0,2.0,89,0.00,,,0.00,0,Wunderground v.1.15,2013-01-08 10:21:00,
2013-01-08 04:26:00,13.5,10.9,29.80,NE,55,1.0,2.0,89,0.00,,,0.00,0,Wunderground v.1.15,2013-01-08 10:26:00,
2013-01-08 04:31:00,13.2,10.6,29.80,NE,55,2.0,3.0,89,0.00,,,0.00,0,Wunderground v.1.15,2013-01-08 10:31:00,
2013-01-08 04:36:00,13.1,10.5,29.79,NE,55,0.0,3.0,89,0.00,,,0.00,0,Wunderground v.1.15,2013-01-08 10:36:00,
2013-01-08 04:41:00,12.9,10.3,29.80,NE,55,1.0,2.0,89,0.00,,,0.00,0,Wunderground v.1.15,2013-01-08 10:41:00,
2013-01-08 04:46:00,12.8,10.2,29.80,NE,55,0.0,2.0,89,0.00,,,0.00,0,Wunderground v.1.15,2013-01-08 10:46:00,
2013-01-08 04:51:00,12.7,10.1,29.80,NE,55,0.0,1.0,89,0.00,,,0.00,0,Wunderground v.1.15,2013-01-08 10:51:00,
2013-01-08 04:56:00,12.6,10.0,29.79,NE,55,0.0,1.0,89,0.00,,,0.00,0,Wunderground v.1.15,2013-01-08 10:56:00,
2013-01-08 05:01:00,12.5,9.9,29.79,NE,55,0.0,0.0,89,0.00,,,0.00,0,Wunderground v.1.15,2013-01-08 11:01:00,
2013-01-08 05:06:00,12.1,9.5,29.79,NE,55,0.0,1.0,89,0.00,,,0.00,0,Wunderground v.1.15,2013-01-08 11:06:00,
2013-01-08 05:11:00,11.6,9.0,29.78,NE,55,0.0,0.0,89,0.00,,,0.00,0,Wunderground v.1.15,2013-01-08 11:11:00,
2013-01-08 05:16:00,11.4,8.8,29.78,NE,55,0.0,0.0,89,0.00,,,0.00,0,Wunderground v.1.15,2013-01-08 11:16:00,
2013-01-08 05:21:00,11.4,8.8,29.78,NE,55,0.0,0.0,89,0.00,,,0.00,0,Wunderground v.1.15,2013-01-08 11:21:00,
2013-01-08 05:26:00,11.9,9.3,29.78,NE,55,1.0,2.0,89,0.00,,,0.00,0,Wunderground v.1.15,2013-01-08 11:26:00,
2013-01-08 05:31:00,12.0,9.4,29.78,NE,55,1.0,2.0,89,0.00,,,0.00,0,Wunderground v.1.15,2013-01-08 11:31:00,
2013-01-08 05:36:00,11.7,9.1,29.78,NE,55,3.0,4.0,89,0.00,,,0.00,0,Wunderground v.1.15,2013-01-08 11:36:00,
2013-01-08 05:41:00,12.1,9.5,29.77,NE,55,1.0,3.0,89,0.00,,,0.00,0,Wunderground v.1.15,2013-01-08 11:41:00,
2013-01-08 05:46:00,12.9,10.3,29.77,NE,55,1.0,3.0,89,0.00,,,0.00,0,Wunderground v.1.15,2013-01-08 11:46:00,
2013-01-08 05:51:00,13.0,10.4,29.78,NE,55,0.0,1.0,89,0.00,,,0.00,0,Wunderground v.1.15,2013-01-08 11:51:00,
2013-01-08 05:56:00,13.0,10.4,29.77,NE,55,1.0,2.0,89,0.00,,,0.00,0,Wunderground v.1.15,2013-01-08 11:56:00,
2013-01-08 06:01:00,13.2,10.6,29.78,NE,55,0.0,1.0,89,0.00,,,0.00,0,Wunderground v.1.15,2013-01-08 12:01:00,
2013-01-08 06:06:00,13.5,11.1,29.78,NE,55,1.0,3.0,90,0.00,,,0.00,0,Wunderground v.1.15,2013-01-08 12:06:00,
2013-01-08 06:11:00,13.7,11.1,29.78,NE,55,3.0,4.0,89,0.00,,,0.00,0,Wunderground v.1.15,2013-01-08 12:11:00,
2013-01-08 06:16:00,14.5,12.1,29.78,ENE,57,3.0,5.0,90,0.00,,,0.00,0,Wunderground v.1.15,2013-01-08 12:16:00,
2013-01-08 06:21:00,15.0,12.6,29.77,ENE,67,5.0,5.0,90,0.00,,,0.00,0,Wunderground v.1.15,2013-01-08 12:21:00,
2013-01-08 06:26:00,15.1,12.7,29.77,SE,144,3.0,6.0,90,0.00,,,0.00,0,Wunderground v.1.15,2013-01-08 12:26:00,
2013-01-08 06:31:00,15.7,13.3,29.77,SSE,163,5.0,5.0,90,0.00,,,0.00,0,Wunderground v.1.15,2013-01-08 12:31:00,
2013-01-08 06:36:00,16.7,14.3,29.77,SSE,163,4.0,5.0,90,0.00,,,0.00,0,Wunderground v.1.15,2013-01-08 12:36:00,
2013-01-08 06:41:00,17.5,15.1,29.77,SSE,165,7.0,7.0,90,0.00,,,0.00,0,Wunderground v.1.15,2013-01-08 12:41:00,
2013-01-08 06:46:00,18.0,15.6,29.77,SSE,168,6.0,9.0,90,0.00,,,0.00,0,Wunderground v.1.15,2013-01-08 12:46:00,
2013-01-08 06:51:00,18.1,15.7,29.77,South,184,5.0,7.0,90,0.00,,,0.00,0,Wunderground v.1.15,2013-01-08 12:51:00,
2013-01-08 06:56:00,17.9,15.5,29.77,South,179,9.0,10.0,90,0.00,,,0.00,0,Wunderground v.1.15,2013-01-08 12:56:00,
2013-01-08 07:01:00,17.5,15.1,29.77,South,186,3.0,7.0,90,0.00,,,0.00,0,Wunderground v.1.15,2013-01-08 13:01:00,
2013-01-08 07:06:00,17.4,15.0,29.78,SSW,200,6.0,7.0,90,0.00,,,0.00,0,Wunderground v.1.15,2013-01-08 13:06:00,
2013-01-08 07:11:00,17.2,14.8,29.79,SSW,211,6.0,6.0,90,0.00,,,0.00,0,Wunderground v.1.15,2013-01-08 13:11:00,
2013-01-08 07:16:00,17.0,14.6,29.79,SSW,210,3.0,7.0,90,0.00,,,0.00,0,Wunderground v.1.15,2013-01-08 13:16:00,
2013-01-08 07:21:00,16.7,14.3,29.79,SW,221,3.0,6.0,90,0.00,,,0.00,0,Wunderground v.1.15,2013-01-08 13:21:00,
2013-01-08 07:26:00,16.3,13.9,29.79,SW,221,4.0,7.0,90,0.00,,,0.00,0,Wunderground v.1.15,2013-01-08 13:26:00,
2013-01-08 07:31:00,16.1,13.7,29.79,SW,225,4.0,5.0,90,0.00,,,0.00,0,Wunderground v.1.15,2013-01-08 13:31:00,
2013-01-08 07:36:00,15.8,13.4,29.79,SW,223,3.0,6.0,90,0.00,,,0.00,0,Wunderground v.1.15,2013-01-08 13:36:00,
2013-01-08 07:41:00,15.6,13.2,29.78,SW,221,3.0,4.0,90,0.00,,,0.00,0,Wunderground v.1.15,2013-01-08 13:41:00,
2013-01-08 07:46:00,15.5,13.1,29.78,SSW,209,5.0,6.0,90,0.00,,,0.00,0,Wunderground v.1.15,2013-01-08 13:46:00,
2013-01-08 07:51:00,15.5,13.1,29.78,SSW,209,3.0,4.0,90,0.00,,,0.00,0,Wunderground v.1.15,2013-01-08 13:51:00,
2013-01-08 07:56:00,15.6,13.2,29.78,SW,217,2.0,5.0,90,0.00,,,0.00,0,Wunderground v.1.15,2013-01-08 13:56:00,
2013-01-08 08:01:00,15.7,13.3,29.77,SW,217,1.0,4.0,90,0.00,,,0.00,7,Wunderground v.1.15,2013-01-08 14:01:00,
2013-01-08 08:06:00,15.9,13.5,29.77,SW,216,2.0,5.0,90,0.00,,,0.00,14,Wunderground v.1.15,2013-01-08 14:06:00,
2013-01-08 08:11:00,16.3,13.9,29.77,SW,216,2.0,5.0,90,0.00,,,0.00,14,Wunderground v.1.15,2013-01-08 14:11:00,
2013-01-08 08:16:00,16.8,14.4,29.77,SW,216,2.0,5.0,90,0.00,,,0.00,16,Wunderground v.1.15,2013-01-08 14:16:00,
2013-01-08 08:21:00,17.4,15.0,29.77,SW,215,2.0,4.0,90,0.00,,,0.00,19,Wunderground v.1.15,2013-01-08 14:21:00,
2013-01-08 08:26:00,18.2,15.8,29.77,SSW,213,3.0,4.0,90,0.00,,,0.00,18,Wunderground v.1.15,2013-01-08 14:26:00,
2013-01-08 08:31:00,18.9,16.5,29.76,SSW,213,2.0,3.0,90,0.00,,,0.00,19,Wunderground v.1.15,2013-01-08 14:31:00,
2013-01-08 08:36:00,19.8,17.3,29.75,South,178,6.0,7.0,90,0.00,,,0.00,32,Wunderground v.1.15,2013-01-08 14:36:00,
2013-01-08 08:41:00,21.4,18.9,29.76,SW,219,8.0,8.0,90,0.00,,,0.00,47,Wunderground v.1.15,2013-01-08 14:41:00,
2013-01-08 08:46:00,22.2,19.7,29.76,SSW,212,4.0,8.0,90,0.00,,,0.00,46,Wunderground v.1.15,2013-01-08 14:46:00,
2013-01-08 08:51:00,23.0,20.5,29.77,SW,225,7.0,8.0,90,0.00,,,0.00,39,Wunderground v.1.15,2013-01-08 14:51:00,
2013-01-08 08:56:00,23.4,20.9,29.76,SSW,193,7.0,9.0,90,0.00,,,0.00,39,Wunderground v.1.15,2013-01-08 14:56:00,
2013-01-08 09:01:00,23.7,21.2,29.75,SSW,203,7.0,7.0,90,0.00,,,0.00,46,Wunderground v.1.15,2013-01-08 15:01:00,
2013-01-08 09:06:00,24.0,21.5,29.75,SSW,202,5.0,8.0,90,0.00,,,0.00,51,Wunderground v.1.15,2013-01-08 15:06:00,
2013-01-08 09:11:00,24.1,21.6,29.75,SSW,203,7.0,7.0,90,0.00,,,0.00,56,Wunderground v.1.15,2013-01-08 15:11:00,
2013-01-08 09:16:00,24.3,21.8,29.76,SW,214,3.0,7.0,90,0.00,,,0.00,65,Wunderground v.1.15,2013-01-08 15:16:00,
2013-01-08 09:21:00,24.5,22.0,29.77,SW,225,5.0,7.0,90,0.00,,,0.00,84,Wunderground v.1.15,2013-01-08 15:21:00,
2013-01-08 09:26:00,24.7,22.2,29.77,SW,219,4.0,7.0,90,0.00,,,0.00,105,Wunderground v.1.15,2013-01-08 15:26:00,
2013-01-08 09:31:00,25.1,22.6,29.76,SW,219,5.0,5.0,90,0.00,,,0.00,120,Wunderground v.1.15,2013-01-08 15:31:00,
2013-01-08 09:36:00,25.9,23.6,29.76,SSW,206,4.0,7.0,91,0.00,,,0.00,178,Wunderground v.1.15,2013-01-08 15:36:00,
2013-01-08 09:41:00,26.4,23.9,29.76,SSW,213,3.0,5.0,90,0.00,,,0.00,183,Wunderground v.1.15,2013-01-08 15:41:00,
2013-01-08 09:46:00,26.8,24.3,29.76,SW,223,9.0,9.0,90,0.00,,,0.00,260,Wunderground v.1.15,2013-01-08 15:46:00,
2013-01-08 09:51:00,27.6,25.3,29.76,SW,223,7.0,8.0,91,0.00,,,0.00,248,Wunderground v.1.15,2013-01-08 15:51:00,
2013-01-08 09:56:00,28.5,26.2,29.76,SSW,213,5.0,8.0,91,0.00,,,0.00,343,Wunderground v.1.15,2013-01-08 15:56:00,
2013-01-08 10:01:00,29.4,26.8,29.76,SW,221,5.0,7.0,90,0.00,,,0.00,290,Wunderground v.1.15,2013-01-08 16:01:00,
2013-01-08 10:06:00,30.0,27.4,29.76,SSW,211,6.0,7.0,90,0.00,,,0.00,158,Wunderground v.1.15,2013-01-08 16:06:00,
2013-01-08 10:11:00,30.6,28.0,29.77,SW,219,5.0,8.0,90,0.00,,,0.00,139,Wunderground v.1.15,2013-01-08 16:11:00,
2013-01-08 10:16:00,31.2,28.6,29.77,SW,223,7.0,9.0,90,0.00,,,0.00,118,Wunderground v.1.15,2013-01-08 16:16:00,
2013-01-08 10:21:00,31.6,28.7,29.77,SW,221,8.0,9.0,89,0.00,,,0.00,135,Wunderground v.1.15,2013-01-08 16:21:00,
2013-01-08 10:26:00,31.9,29.0,29.77,SW,219,6.0,9.0,89,0.00,,,0.00,179,Wunderground v.1.15,2013-01-08 16:26:00,
2013-01-08 10:31:00,32.3,29.1,29.77,SW,223,4.0,6.0,88,0.00,,,0.00,244,Wunderground v.1.15,2013-01-08 16:31:00,
2013-01-08 10:36:00,33.2,30.0,29.77,SSW,212,5.0,9.0,88,0.00,,,0.00,350,Wunderground v.1.15,2013-01-08 16:36:00,
2013-01-08 10:41:00,34.5,30.7,29.77,SW,214,6.0,9.0,86,0.00,,,0.00,387,Wunderground v.1.15,2013-01-08 16:41:00,
2013-01-08 10:46:00,35.9,30.9,29.77,WSW,251,7.0,13.0,82,0.00,,,0.00,376,Wunderground v.1.15,2013-01-08 16:46:00,
2013-01-08 10:51:00,37.0,31.1,29.77,WSW,253,4.0,10.0,79,0.00,,,0.00,392,Wunderground v.1.15,2013-01-08 16:51:00,
2013-01-08 10:56:00,37.5,30.3,29.76,SW,236,5.0,10.0,75,0.00,,,0.00,308,Wunderground v.1.15,2013-01-08 16:56:00,
2013-01-08 11:01:00,37.5,30.0,29.76,WSW,252,7.0,11.0,74,0.00,,,0.00,323,Wunderground v.1.15,2013-01-08 17:01:00,
2013-01-08 11:06:00,38.0,29.8,29.76,WSW,244,4.0,11.0,72,0.00,,,0.00,373,Wunderground v.1.15,2013-01-08 17:06:00,
2013-01-08 11:11:00,38.8,29.8,29.76,WSW,250,5.0,10.0,70,0.00,,,0.00,352,Wunderground v.1.15,2013-01-08 17:11:00,
2013-01-08 11:16:00,39.2,30.2,29.76,West,262,7.0,13.0,70,0.00,,,0.00,378,Wunderground v.1.15,2013-01-08 17:16:00,
2013-01-08 11:21:00,39.7,30.0,29.76,WSW,252,6.0,8.0,68,0.00,,,0.00,429,Wunderground v.1.15,2013-01-08 17:21:00,
2013-01-08 11:25:00,40.2,30.1,29.75,West,265,3.0,11.0,67,0.00,,,0.00,392,Wunderground v.1.15,2013-01-08 17:25:00,
2013-01-08 11:31:00,40.4,29.6,29.75,West,269,11.0,11.0,65,0.00,,,0.00,390,Wunderground v.1.15,2013-01-08 17:31:00,
2013-01-08 11:36:00,40.7,29.8,29.75,West,268,7.0,15.0,65,0.00,,,0.00,431,Wunderground v.1.15,2013-01-08 17:36:00,
2013-01-08 11:40:00,41.3,29.6,29.75,West,259,12.0,14.0,63,0.00,,,0.00,434,Wunderground v.1.15,2013-01-08 17:40:00,
2013-01-08 11:45:00,41.7,29.6,29.75,West,270,3.0,17.0,62,0.00,,,0.00,445,Wunderground v.1.15,2013-01-08 17:45:00,
2013-01-08 11:50:00,42.3,30.6,29.75,WNW,292,8.0,10.0,63,0.00,,,0.00,510,Wunderground v.1.15,2013-01-08 17:50:00,
2013-01-08 11:55:00,42.9,30.8,29.75,West,275,11.0,20.0,62,0.00,,,0.00,489,Wunderground v.1.15,2013-01-08 17:55:00,
2013-01-08 12:00:00,43.7,30.3,29.75,WNW,289,12.0,15.0,59,0.00,,,0.00,441,Wunderground v.1.15,2013-01-08 18:00:00,
2013-01-08 12:05:00,44.2,29.5,29.75,WNW,296,9.0,18.0,56,0.00,,,0.00,489,Wunderground v.1.15,2013-01-08 18:05:00,
2013-01-08 12:10:00,44.7,29.5,29.75,WNW,292,8.0,13.0,55,0.00,,,0.00,385,Wunderground v.1.15,2013-01-08 18:10:00,
2013-01-08 12:15:00,44.5,29.3,29.75,WNW,294,9.0,16.0,55,0.00,,,0.00,478,Wunderground v.1.15,2013-01-08 18:15:00,
2013-01-08 12:20:00,44.7,30.0,29.75,WNW,284,14.0,16.0,56,0.00,,,0.00,489,Wunderground v.1.15,2013-01-08 18:20:00,
2013-01-08 12:25:00,45.1,30.3,29.74,WNW,288,18.0,18.0,56,0.00,,,0.00,455,Wunderground v.1.15,2013-01-08 18:25:00,
2013-01-08 12:30:00,44.7,30.4,29.74,WNW,292,13.0,13.0,57,0.00,,,0.00,350,Wunderground v.1.15,2013-01-08 18:30:00,
2013-01-08 12:35:00,44.7,30.8,29.74,West,279,9.0,20.0,58,0.00,,,0.00,385,Wunderground v.1.15,2013-01-08 18:35:00,
2013-01-08 12:40:00,44.9,31.0,29.75,WNW,297,10.0,13.0,58,0.00,,,0.00,350,Wunderground v.1.15,2013-01-08 18:40:00,
2013-01-08 12:45:00,44.9,31.0,29.75,WNW,284,10.0,19.0,58,0.00,,,0.00,401,Wunderground v.1.15,2013-01-08 18:45:00,
2013-01-08 12:50:00,44.6,30.3,29.75,West,279,8.0,14.0,57,0.00,,,0.00,352,Wunderground v.1.15,2013-01-08 18:50:00,
2013-01-08 12:55:00,44.5,31.1,29.75,WNW,290,8.0,17.0,59,0.00,,,0.00,276,Wunderground v.1.15,2013-01-08 18:55:00,
2013-01-08 13:00:00,44.2,31.2,29.75,WNW,288,9.0,9.0,60,0.00,,,0.00,279,Wunderground v.1.15,2013-01-08 19:00:00,
2013-01-08 13:05:00,44.2,32.0,29.75,WNW,302,8.0,20.0,62,0.00,,,0.00,281,Wunderground v.1.15,2013-01-08 19:05:00,
2013-01-08 13:10:00,44.1,32.3,29.75,West,271,15.0,18.0,63,0.00,,,0.00,251,Wunderground v.1.15,2013-01-08 19:10:00,
2013-01-08 13:15:00,44.0,32.6,29.75,West,277,12.0,20.0,64,0.00,,,0.00,216,Wunderground v.1.15,2013-01-08 19:15:00,
2013-01-08 13:20:00,44.0,32.6,29.76,WNW,293,10.0,15.0,64,0.00,,,0.00,206,Wunderground v.1.15,2013-01-08 19:20:00,
2013-01-08 13:25:00,44.0,33.0,29.76,WNW,287,7.0,15.0,65,0.00,,,0.00,221,Wunderground v.1.15,2013-01-08 19:25:00,
2013-01-08 13:30:00,44.2,33.2,29.76,WNW,284,8.0,10.0,65,0.00,,,0.00,229,Wunderground v.1.15,2013-01-08 19:30:00,
2013-01-08 13:35:00,44.3,33.3,29.76,West,281,9.0,17.0,65,0.00,,,0.00,211,Wunderground v.1.15,2013-01-08 19:35:00,
2013-01-08 13:40:00,44.3,33.3,29.76,WNW,290,7.0,10.0,65,0.00,,,0.00,204,Wunderground v.1.15,2013-01-08 19:40:00,
2013-01-08 13:45:00,44.3,33.3,29.76,West,281,8.0,14.0,65,0.00,,,0.00,185,Wunderground v.1.15,2013-01-08 19:45:00,
2013-01-08 13:50:00,44.4,33.4,29.76,WNW,288,10.0,10.0,65,0.00,,,0.00,178,Wunderground v.1.15,2013-01-08 19:50:00,
2013-01-08 13:55:00,44.4,33.7,29.77,West,278,13.0,13.0,66,0.00,,,0.00,197,Wunderground v.1.15,2013-01-08 19:55:00,
2013-01-08 14:00:00,44.4,33.7,29.77,WNW,286,11.0,11.0,66,0.00,,,0.00,183,Wunderground v.1.15,2013-01-08 20:00:00,
2013-01-08 14:05:00,44.4,33.7,29.77,WNW,291,9.0,12.0,66,0.00,,,0.00,169,Wunderground v.1.15,2013-01-08 20:05:00,
2013-01-08 14:10:00,44.4,33.4,29.77,WNW,294,7.0,11.0,65,0.00,,,0.00,167,Wunderground v.1.15,2013-01-08 20:10:00,
2013-01-08 14:15:00,44.6,33.6,29.77,West,281,8.0,15.0,65,0.00,,,0.00,153,Wunderground v.1.15,2013-01-08 20:15:00,
2013-01-08 14:20:00,44.6,33.6,29.78,WNW,296,12.0,13.0,65,0.00,,,0.00,139,Wunderground v.1.15,2013-01-08 20:20:00,
2013-01-08 14:25:00,44.6,33.6,29.78,WNW,292,8.0,15.0,65,0.00,,,0.00,148,Wunderground v.1.15,2013-01-08 20:25:00,
2013-01-08 14:30:00,44.5,33.5,29.78,WNW,289,12.0,13.0,65,0.00,,,0.00,176,Wunderground v.1.15,2013-01-08 20:30:00,